When you browse on this site, cookies collect data to enhance your experience and personalize the content and advertising you see.
Visit our Privacy Policy to learn more. By continuing to use the site, you agree to this use of cookies and data.
  • In Österreich
  • Länderverzeichnis
  • Für 7 Tage
  • Wassertemperatur
  • Wetterkarte
  • News
  • Widgets
  • user-avatar
    Anmelden

    Stündliche Wetter Wroclaw

    Heute, 9 April, Donnerstag

    Zeit Temperatur Niederschläge Wind Luftdruck Luftfeuchtigkeit
    00:00 +9°C° 0 mm 2 m/S 756 mmHg 53%
    01:00 +9°C° 0 mm 3 m/S 756 mmHg 54%
    02:00 +9°C° 0 mm 2 m/S 756 mmHg 55%
    03:00 +9°C° 0 mm 2 m/S 755 mmHg 56%
    04:00 +8°C° 0 mm 2 m/S 755 mmHg 57%
    05:00 +9°C° 0 mm 2 m/S 755 mmHg 57%
    06:00 +10°C° 0 mm 2 m/S 755 mmHg 57%
    07:00 +12°C° 0 mm 1 m/S 755 mmHg 57%
    08:00 +14°C° 0 mm 2 m/S 755 mmHg 55%
    09:00 +16°C° 0 mm 3 m/S 755 mmHg 53%
    10:00 +18°C° 0 mm 4 m/S 755 mmHg 51%
    11:00 +18°C° 0 mm 4 m/S 755 mmHg 50%
    12:00 +19°C° 0 mm 4 m/S 755 mmHg 50%
    13:00 +20°C° 0 mm 5 m/S 754 mmHg 49%
    14:00 +20°C° 0 mm 5 m/S 754 mmHg 49%
    15:00 +20°C° 0 mm 5 m/S 754 mmHg 50%
    16:00 +19°C° 0 mm 5 m/S 755 mmHg 50%
    17:00 +16°C° 0 mm 5 m/S 755 mmHg 54%
    18:00 +14°C° 0 mm 4 m/S 755 mmHg 57%
    19:00 +12°C° 0 mm 4 m/S 755 mmHg 61%
    20:00 +11°C° 0 mm 3 m/S 756 mmHg 67%
    21:00 +10°C° 0 mm 3 m/S 757 mmHg 73%
    22:00 +9°C° 0 mm 3 m/S 757 mmHg 79%
    23:00 +8°C° 0 mm 2 m/S 758 mmHg 79%

    Morgen, 10 April, Freitag

    Zeit Temperatur Niederschläge Wind Luftdruck Luftfeuchtigkeit
    00:00 +7°C° 0 mm 2 m/S 758 mmHg 78%
    01:00 +6°C° 0 mm 2 m/S 758 mmHg 77%
    02:00 +6°C° 0 mm 2 m/S 758 mmHg 73%
    03:00 +6°C° 0 mm 2 m/S 758 mmHg 68%
    04:00 +6°C° 0 mm 2 m/S 758 mmHg 64%
    05:00 +7°C° 0 mm 1 m/S 758 mmHg 62%
    06:00 +7°C° 0 mm 1 m/S 759 mmHg 60%
    07:00 +7°C° 0 mm 1 m/S 759 mmHg 58%
    08:00 +8°C° 0 mm 2 m/S 759 mmHg 53%
    09:00 +9°C° 0 mm 2 m/S 759 mmHg 48%
    10:00 +12°C° 0 mm 2 m/S 759 mmHg 42%
    11:00 +13°C° 0 mm 2 m/S 759 mmHg 40%
    12:00 +14°C° 0 mm 2 m/S 758 mmHg 38%
    13:00 +14°C° 0 mm 2 m/S 758 mmHg 37%
    14:00 +15°C° 0 mm 2 m/S 758 mmHg 37%
    15:00 +15°C° 0 mm 2 m/S 757 mmHg 38%
    16:00 +15°C° 0 mm 2 m/S 757 mmHg 39%
    17:00 +13°C° 0 mm 2 m/S 757 mmHg 44%
    18:00 +10°C° 0 mm 2 m/S 757 mmHg 49%
    19:00 +10°C° 0 mm 1 m/S 757 mmHg 54%
    20:00 +9°C° 0 mm 1 m/S 757 mmHg 56%
    21:00 +8°C° 0 mm 1 m/S 757 mmHg 59%
    22:00 +7°C° 0 mm 1 m/S 757 mmHg 62%
    23:00 +7°C° 0 mm 1 m/S 757 mmHg 63%

    übermorgen, 11 April, Samstag

    Zeit Temperatur Niederschläge Wind Luftdruck Luftfeuchtigkeit
    00:00 +6°C° 0 mm 1 m/S 758 mmHg 65%
    01:00 +6°C° 0 mm 1 m/S 758 mmHg 67%
    02:00 +6°C° 0 mm 1 m/S 758 mmHg 68%
    03:00 +5°C° 0 mm 1 m/S 758 mmHg 70%
    04:00 +4°C° 0 mm 2 m/S 758 mmHg 72%
    05:00 +4°C° 0 mm 2 m/S 758 mmHg 71%
    06:00 +5°C° 0 mm 2 m/S 758 mmHg 70%
    07:00 +6°C° 0 mm 2 m/S 758 mmHg 69%
    08:00 +8°C° 0 mm 2 m/S 759 mmHg 64%
    09:00 +9°C° 0 mm 2 m/S 759 mmHg 59%
    10:00 +12°C° 0 mm 2 m/S 759 mmHg 53%
    11:00 +13°C° 0 mm 2 m/S 759 mmHg 50%
    12:00 +14°C° 0 mm 2 m/S 759 mmHg 46%
    13:00 +14°C° 0 mm 1 m/S 759 mmHg 42%
    14:00 +14°C° 0 mm 1 m/S 758 mmHg 42%
    15:00 +14°C° 0 mm 1 m/S 758 mmHg 42%
    16:00 +14°C° 0 mm 1 m/S 757 mmHg 42%
    17:00 +13°C° 0 mm 1 m/S 757 mmHg 47%
    18:00 +11°C° 0 mm 1 m/S 757 mmHg 51%
    19:00 +10°C° 0 mm 1 m/S 757 mmHg 56%
    20:00 +9°C° 0 mm 1 m/S 758 mmHg 58%
    21:00 +8°C° 0 mm 1 m/S 758 mmHg 60%
    22:00 +8°C° 0 mm 1 m/S 758 mmHg 62%
    23:00 +8°C° 0 mm 1 m/S 757 mmHg 64%

    12 April, Sonntag

    Zeit Temperatur Niederschläge Wind Luftdruck Luftfeuchtigkeit
    00:00 +7°C° 0 mm 1 m/S 757 mmHg 66%
    01:00 +7°C° 0 mm 1 m/S 757 mmHg 67%
    02:00 +6°C° 0 mm 2 m/S 757 mmHg 68%
    03:00 +5°C° 0 mm 2 m/S 756 mmHg 69%
    04:00 +5°C° 0 mm 2 m/S 756 mmHg 70%
    05:00 +6°C° 0 mm 2 m/S 755 mmHg 69%
    06:00 +7°C° 0 mm 2 m/S 755 mmHg 68%
    07:00 +8°C° 0 mm 3 m/S 755 mmHg 67%
    08:00 +11°C° 0 mm 3 m/S 755 mmHg 61%
    09:00 +13°C° 0 mm 3 m/S 754 mmHg 55%
    10:00 +16°C° 0 mm 3 m/S 754 mmHg 48%
    11:00 +17°C° 0 mm 3 m/S 753 mmHg 46%
    12:00 +19°C° 0 mm 3 m/S 753 mmHg 43%
    13:00 +20°C° 0 mm 3 m/S 752 mmHg 40%
    14:00 +20°C° 0 mm 3 m/S 752 mmHg 42%
    15:00 +20°C° 0 mm 3 m/S 751 mmHg 43%
    16:00 +20°C° 0 mm 3 m/S 751 mmHg 45%
    17:00 +18°C° 0 mm 3 m/S 750 mmHg 52%
    18:00 +16°C° 0 mm 3 m/S 750 mmHg 60%
    19:00 +13°C° 0 mm 3 m/S 750 mmHg 67%
    20:00 +12°C° 0 mm 3 m/S 749 mmHg 71%
    21:00 +12°C° 0 mm 3 m/S 749 mmHg 76%
    22:00 +11°C° 0 mm 3 m/S 749 mmHg 80%
    23:00 +10°C° 0 mm 3 m/S 749 mmHg 82%

    13 April, Montag

    Zeit Temperatur Niederschläge Wind Luftdruck Luftfeuchtigkeit
    00:00 +10°C° 0 mm 3 m/S 749 mmHg 83%
    01:00 +9°C° 0 mm 3 m/S 748 mmHg 85%
    02:00 +9°C° 0 mm 2 m/S 748 mmHg 85%
    03:00 +9°C° 0 mm 2 m/S 747 mmHg 85%
    04:00 +9°C° 0 mm 2 m/S 747 mmHg 85%
    05:00 +10°C° 0 mm 2 m/S 747 mmHg 82%
    06:00 +12°C° 0 mm 2 m/S 747 mmHg 79%
    07:00 +13°C° 0 mm 2 m/S 747 mmHg 76%
    08:00 +13°C° 0 mm 3 m/S 747 mmHg 71%
    09:00 +16°C° 0 mm 3 m/S 746 mmHg 66%
    10:00 +18°C° 0 mm 4 m/S 746 mmHg 62%
    11:00 +18°C° 0.2 mm 4 m/S 746 mmHg 59%
    12:00 +19°C° 0.2 mm 5 m/S 746 mmHg 56%
    13:00 +20°C° 0.2 mm 5 m/S 746 mmHg 54%
    14:00 +17°C° 0.5 mm 5 m/S 746 mmHg 59%
    15:00 +16°C° 0.5 mm 5 m/S 745 mmHg 64%
    16:00 +15°C° 0.5 mm 5 m/S 745 mmHg 69%
    17:00 +13°C° 0.3 mm 5 m/S 746 mmHg 73%
    18:00 +12°C° 0.3 mm 5 m/S 747 mmHg 76%
    19:00 +9°C° 0.3 mm 5 m/S 748 mmHg 80%
    20:00 +7°C° 0 mm 6 m/S 749 mmHg 79%
    21:00 +5°C° 0 mm 6 m/S 751 mmHg 79%
    22:00 +3°C° 0 mm 7 m/S 752 mmHg 78%
    23:00 +2°C° 0 mm 6 m/S 753 mmHg 77%

    14 April, Dienstag

    Zeit Temperatur Niederschläge Wind Luftdruck Luftfeuchtigkeit
    00:00 +1°C° 0 mm 5 m/S 754 mmHg 75%
    01:00 0°C° 0 mm 4 m/S 755 mmHg 73%
    02:00 0°C° 0 mm 3 m/S 756 mmHg 74%
    03:00 -1°C° 0 mm 3 m/S 757 mmHg 74%
    04:00 -2°C° 0 mm 2 m/S 758 mmHg 75%
    05:00 -1°C° 0 mm 3 m/S 758 mmHg 69%
    06:00 0°C° 0 mm 3 m/S 759 mmHg 63%
    07:00 +1°C° 0 mm 3 m/S 759 mmHg 57%
    08:00 +2°C° 0 mm 3 m/S 759 mmHg 53%
    09:00 +3°C° 0 mm 3 m/S 759 mmHg 48%
    10:00 +5°C° 0 mm 3 m/S 759 mmHg 44%
    11:00 +5°C° 0 mm 3 m/S 759 mmHg 42%
    12:00 +7°C° 0 mm 3 m/S 759 mmHg 41%
    13:00 +8°C° 0 mm 3 m/S 759 mmHg 40%
    14:00 +8°C° 0 mm 3 m/S 759 mmHg 40%
    15:00 +9°C° 0 mm 3 m/S 759 mmHg 40%
    16:00 +9°C° 0 mm 3 m/S 758 mmHg 40%
    17:00 +7°C° 0 mm 2 m/S 758 mmHg 45%
    18:00 +7°C° 0 mm 1 m/S 758 mmHg 49%
    19:00 +5°C° 0 mm 1 m/S 758 mmHg 54%
    20:00 +5°C° 0 mm 1 m/S 758 mmHg 55%
    21:00 +4°C° 0 mm 1 m/S 759 mmHg 55%
    22:00 +4°C° 0 mm 1 m/S 759 mmHg 56%
    23:00 +3°C° 0 mm 1 m/S 759 mmHg 58%
    Mehr zeigen